Regional Weather Roundup
Issued by NWS Sioux Falls, SD

Home | Current Version | Previous Version | Text Only | Print | Product List | Glossary On
Versions: 1 2 3 4 5 6 7 8 9 10 11 12 13 14 15 16 17 18 19 20 21 22 23 24 25 26 27 28 29 30 31 32 33 34 35 36 37 38 39 40 41 42 43 44 45 46 47 48 49 50
000
ASUS43 KFSD 010410
RWRFSD

WEATHER ROUNDUP FOR SE SOUTH DAKOTA/SW MINNESOTA/NW IOWA
NATIONAL WEATHER SERVICE SIOUX FALLS SD
1100 PM CDT FRI OCT 31 2014

NOTE: "FAIR" INDICATES FEW OR NO CLOUDS BELOW 12,000 FEET WITH NO
SIGNIFICANT WEATHER AND OR OBSTRUCTIONS TO VISIBILITY.


SDZ038>040-050-052>070-010500-
SOUTHEAST SOUTH DAKOTA

CITY           SKY/WX    TMP DP  RH WIND       PRES   REMARKS
CHAMBERLAIN    PTCLDY    29  18  63 SE10      30.28F WCI  20
HURON          PTCLDY    30  18  60 SE12      30.34F WCI  20
MADISON        FAIR      28  18  64 S9        30.39S WCI  20
MITCHELL       PTCLDY    31  19  61 SE13      30.38S WCI  21
SIOUX FALLS    PTCLDY    33  16  49 S10       30.42S WCI  25
WINNER         FAIR      36  13  38 S23G30    30.23F
YANKTON        MOCLDY    30  18  59 SE7       30.42F WCI  23
$$

MNZ071-072-080-081-089-090-097-098-010500-
SOUTHWEST MINNESOTA

CITY           SKY/WX    TMP DP  RH WIND       PRES   REMARKS
FAIRMONT       PTCLDY    21  10  63 CALM      30.48R
JACKSON        PTCLDY    23  14  68 E7        30.45F WCI  15
LUVERNE        PTCLDY    27  16  63 CALM      30.44R
MARSHALL       CLEAR     25  12  58 S7        30.43R WCI  17
MONTEVIDEO     PTCLDY    27  19  74 S8        30.45S WCI  18
PIPESTONE      PTCLDY    25  16  68 SE6       30.41R WCI  18
REDWOOD FALLS  PTCLDY    25  14  63 SE8       30.46S WCI  16
TRACY          PTCLDY    27  17  66 S8        30.44S WCI  18
WINDOM         PTCLDY    23  16  74 CALM      30.45S
WORTHINGTON    MOCLDY    23  12  63 SE7       30.44S WCI  15
$$

IAZ001>003-012>014-020>022-031-032-NEZ013-014-SDZ071-010500-
NORTHWEST IOWA

CITY           SKY/WX    TMP DP  RH WIND       PRES   REMARKS
CHEROKEE       CLEAR     24  19  78 CALM      30.46R
DENISON        PTCLDY    25  21  86 E7        30.44S WCI  17
ESTHERVILLE    CLEAR     21  13  71 E5        30.46S WCI  15
LE MARS        PTCLDY    30  19  64 SE6       30.45S WCI  24
ORANGE CITY    PTCLDY    28  16  59 SE3       30.44R
SHELDON        PTCLDY    23  16  74 E7        30.43S WCI  15
SIOUX CITY     PTCLDY    24  20  84 CALM      30.46R
SPENCER        PTCLDY    20  14  77 E6        30.45F WCI  12
STORM LAKE     CLEAR     27  16  63 E9        30.45S WCI  17
$$

ABBREVIATIONS USED IN REMARKS
   TC - TEMPERATURE IN CELSIUS
  WCI - WIND CHILL INDEX
   HX - HEAT INDEX
  VSB - VISIBILITY




USA.gov is the U.S. government's official web portal to all federal, state and local government web resources and services.